Portada
METAR-TAF:

METAR-TAF

Aeropuertos :

Tafraoui, Argelia

Base aérea

latitud: 35-32-33N, longitud: 000-31-56W, altitud: 112 m

Observación

El informe se hizo hace 21 minutos, a las 09:00 UTC
Viento 12 kt del oeste
Temperatura 18°C
Humedad 77%
Presión 1017 hPa
Visibilidad: 5000 m
Escasas nubes a una altura de 1600 ft
Cielo nuboso a una altura de 2600 ft

METAR: DAOL 240900Z 28012KT 5000 FEW016 BKN026 18/14 Q1017

Hora: 10:21 (09:21 UTC)


TAF: falta

Observaciones y pronósticos meteorológicos de más de 4000 aeropuertos (mensajes METAR y TAF).

Los puntos amarillos y rojos representan las estaciones disponibles.

Ponga el ratón en el punto deseado para ver el nombre de la estación.

Haga clic para ver las observaciones y los pronósticos meteorológicos.

Para cambiar el mapa : haga clic en los botones verdes con una cruz de color negro para hacer un zoom, en el botón verde con un guión para alejar o en las flechas verdes para mapas adyacentes.


METAR-TAF: